Tracking 33747 objects as of 11-Apr-2026
HD Live streaming from Space Station
objects crossing your sky now

STARLINK-11604

Track STARLINK-11604 now!
10-day predictions
STARLINK-11604 is classified as:


NORAD ID: 63133
Int'l Code: 2025-043B
Perigee: 361.6 km
Apogee: 365.0 km
Inclination: 43.0 °
Period: 91.7 minutes
Semi major axis: 6734 km
RCS: Unknown
Launch date: March 2, 2024
Source: United States (US)
Launch site: AIR FORCE EASTERN TEST RANGE (AFETR)
Your satellite tracking list
Your tracking list is empty




NASA's NSSDC Master Catalog

Two Line Element Set (TLE):
1 63133U 25043B   26101.15572035  .00257851  00000-0  19425-2 0  9999
2 63133  43.0006  55.4303 0002512 251.8271 108.2324 15.70946618 64453
Source of the keplerian elements: AFSPC